Year,Month,Day,Hour,Minute,Value (Times are PST for temperature in C)
2021,06,29,00,00,26.30
2021,06,29,00,01,26.40
2021,06,29,00,02,26.30
2021,06,29,00,03,26.20
2021,06,29,00,04,26.20
2021,06,29,00,05,26.20
2021,06,29,00,06,26.10
2021,06,29,00,07,25.90
2021,06,29,00,08,25.80
2021,06,29,00,09,25.80
2021,06,29,00,10,25.90
2021,06,29,00,11,25.90
2021,06,29,00,12,25.90
2021,06,29,00,13,25.80
2021,06,29,00,14,25.90
2021,06,29,00,15,25.90
2021,06,29,00,16,25.90
2021,06,29,00,17,25.90
2021,06,29,00,18,25.90
2021,06,29,00,19,25.90
2021,06,29,00,20,26.10
2021,06,29,00,21,26.00
2021,06,29,00,22,26.00
2021,06,29,00,23,26.10
2021,06,29,00,24,26.30
2021,06,29,00,25,26.40
2021,06,29,00,26,26.30
2021,06,29,00,27,26.30
2021,06,29,00,28,26.30
2021,06,29,00,29,26.30
2021,06,29,00,30,26.20
2021,06,29,00,31,26.20
2021,06,29,00,32,26.10
2021,06,29,00,33,26.00
2021,06,29,00,34,26.10
2021,06,29,00,35,26.10
2021,06,29,00,36,26.10
2021,06,29,00,37,26.00
2021,06,29,00,38,26.00
2021,06,29,00,39,25.90
2021,06,29,00,40,25.90
2021,06,29,00,41,25.90
2021,06,29,00,42,25.90
2021,06,29,00,43,25.80
2021,06,29,00,44,25.70
2021,06,29,00,45,25.70
2021,06,29,00,46,25.70
2021,06,29,00,47,25.70
2021,06,29,00,48,25.70
2021,06,29,00,49,25.70
2021,06,29,00,50,25.70
2021,06,29,00,51,25.60
2021,06,29,00,52,25.70
2021,06,29,00,53,25.70
2021,06,29,00,54,25.70
2021,06,29,00,55,25.80
2021,06,29,00,56,25.90
2021,06,29,00,57,25.90
2021,06,29,00,58,25.90
2021,06,29,00,59,26.00
2021,06,29,01,00,26.00
2021,06,29,01,01,26.00
2021,06,29,01,02,26.10
2021,06,29,01,03,26.10
2021,06,29,01,04,26.10
2021,06,29,01,05,26.20
2021,06,29,01,06,26.20
2021,06,29,01,07,26.20
2021,06,29,01,08,26.10
2021,06,29,01,09,26.00
2021,06,29,01,10,26.00
2021,06,29,01,11,25.90
2021,06,29,01,12,25.90
2021,06,29,01,13,25.80
2021,06,29,01,14,25.70
2021,06,29,01,15,25.70
2021,06,29,01,16,25.70
2021,06,29,01,17,25.70
2021,06,29,01,18,25.60
2021,06,29,01,19,25.60
2021,06,29,01,20,25.60
2021,06,29,01,21,25.60
2021,06,29,01,22,25.50
2021,06,29,01,23,25.50
2021,06,29,01,24,25.40
2021,06,29,01,25,25.40
2021,06,29,01,26,25.40
2021,06,29,01,27,25.50
2021,06,29,01,28,25.50
2021,06,29,01,29,25.50
2021,06,29,01,30,25.50
2021,06,29,01,31,25.50
2021,06,29,01,32,25.60
2021,06,29,01,33,25.60
2021,06,29,01,34,25.60
2021,06,29,01,35,25.60
2021,06,29,01,36,25.50
2021,06,29,01,37,25.40
2021,06,29,01,38,25.40
2021,06,29,01,39,25.40
2021,06,29,01,40,25.40
2021,06,29,01,41,25.30
2021,06,29,01,42,25.20
2021,06,29,01,43,25.20
2021,06,29,01,44,25.20
2021,06,29,01,45,25.10
2021,06,29,01,46,25.10
2021,06,29,01,47,25.20
2021,06,29,01,48,25.20
2021,06,29,01,49,25.20
2021,06,29,01,50,25.20
2021,06,29,01,51,25.20
2021,06,29,01,52,25.20
2021,06,29,01,53,25.30
2021,06,29,01,54,25.30
2021,06,29,01,55,25.30
2021,06,29,01,56,25.30
2021,06,29,01,57,25.20
2021,06,29,01,58,25.20
2021,06,29,01,59,25.30
2021,06,29,02,00,25.30
2021,06,29,02,01,25.30
2021,06,29,02,02,25.30
2021,06,29,02,03,25.30
2021,06,29,02,04,25.30
2021,06,29,02,05,25.20
2021,06,29,02,06,25.20
2021,06,29,02,07,25.20
2021,06,29,02,08,25.20
2021,06,29,02,09,25.20
2021,06,29,02,10,25.20
2021,06,29,02,11,25.20
2021,06,29,02,12,25.20
2021,06,29,02,13,25.20
2021,06,29,02,14,25.30
2021,06,29,02,15,25.30
2021,06,29,02,16,25.30
2021,06,29,02,17,25.30
2021,06,29,02,18,25.30
2021,06,29,02,19,25.30
2021,06,29,02,20,25.30
2021,06,29,02,21,25.30
2021,06,29,02,22,25.30
2021,06,29,02,23,25.30
2021,06,29,02,24,25.30
2021,06,29,02,25,25.30
2021,06,29,02,26,25.30
2021,06,29,02,27,25.30
2021,06,29,02,28,25.30
2021,06,29,02,29,25.20
2021,06,29,02,30,25.20
2021,06,29,02,31,25.20
2021,06,29,02,32,25.10
2021,06,29,02,33,25.10
2021,06,29,02,34,25.10
2021,06,29,02,35,25.10
2021,06,29,02,36,25.10
2021,06,29,02,37,25.10
2021,06,29,02,38,25.10
2021,06,29,02,39,25.10
2021,06,29,02,40,25.10
2021,06,29,02,41,25.00
2021,06,29,02,42,25.00
2021,06,29,02,43,25.00
2021,06,29,02,44,25.00
2021,06,29,02,45,25.00
2021,06,29,02,46,25.00
2021,06,29,02,47,25.00
2021,06,29,02,48,25.00
2021,06,29,02,49,24.90
2021,06,29,02,50,24.90
2021,06,29,02,51,24.90
2021,06,29,02,52,24.80
2021,06,29,02,53,24.70
2021,06,29,02,54,24.70
2021,06,29,02,55,24.60
2021,06,29,02,56,24.70
2021,06,29,02,57,24.80
2021,06,29,02,58,24.80
2021,06,29,02,59,24.90
2021,06,29,03,00,24.80
2021,06,29,03,01,24.80
2021,06,29,03,02,24.80
2021,06,29,03,03,24.80
2021,06,29,03,04,24.80
2021,06,29,03,05,24.80
2021,06,29,03,06,24.80
2021,06,29,03,07,24.70
2021,06,29,03,08,24.70
2021,06,29,03,09,24.60
2021,06,29,03,10,24.60
2021,06,29,03,11,24.70
2021,06,29,03,12,24.70
2021,06,29,03,13,24.70
2021,06,29,03,14,24.70
2021,06,29,03,15,24.60
2021,06,29,03,16,24.70
2021,06,29,03,17,24.80
2021,06,29,03,18,24.80
2021,06,29,03,19,24.80
2021,06,29,03,20,24.80
2021,06,29,03,21,24.80
2021,06,29,03,22,24.80
2021,06,29,03,23,24.80
2021,06,29,03,24,24.80
2021,06,29,03,25,24.80
2021,06,29,03,26,24.80
2021,06,29,03,27,24.80
2021,06,29,03,28,24.80
2021,06,29,03,29,24.70
2021,06,29,03,30,24.70
2021,06,29,03,31,24.70
2021,06,29,03,32,24.60
2021,06,29,03,33,24.60
2021,06,29,03,34,24.60
2021,06,29,03,35,24.60
2021,06,29,03,36,24.60
2021,06,29,03,37,24.60
2021,06,29,03,38,24.60
2021,06,29,03,39,24.60
2021,06,29,03,40,24.70
2021,06,29,03,41,24.60
2021,06,29,03,42,24.60
2021,06,29,03,43,24.70
2021,06,29,03,44,24.60
2021,06,29,03,45,24.70
2021,06,29,03,46,24.60
2021,06,29,03,47,24.70
2021,06,29,03,48,24.70
2021,06,29,03,49,24.70
2021,06,29,03,50,24.70
2021,06,29,03,51,24.70
2021,06,29,03,52,24.60
2021,06,29,03,53,24.70
2021,06,29,03,54,24.70
2021,06,29,03,55,24.90
2021,06,29,03,56,24.90
2021,06,29,03,57,25.00
2021,06,29,03,58,25.10
2021,06,29,03,59,25.20
2021,06,29,04,00,25.10
2021,06,29,04,01,25.10
2021,06,29,04,02,25.20
2021,06,29,04,03,25.20
2021,06,29,04,04,25.20
2021,06,29,04,05,25.20
2021,06,29,04,06,25.20
2021,06,29,04,07,25.20
2021,06,29,04,08,25.20
2021,06,29,04,09,25.20
2021,06,29,04,10,25.20
2021,06,29,04,11,25.20
2021,06,29,04,12,25.30
2021,06,29,04,13,25.30
2021,06,29,04,14,25.30
2021,06,29,04,15,25.40
2021,06,29,04,16,25.50
2021,06,29,04,17,25.50
2021,06,29,04,18,25.60
2021,06,29,04,19,25.60
2021,06,29,04,20,25.70
2021,06,29,04,21,25.70
2021,06,29,04,22,25.60
2021,06,29,04,23,25.70
2021,06,29,04,24,25.60
2021,06,29,04,25,25.70
2021,06,29,04,26,25.70
2021,06,29,04,27,25.60
2021,06,29,04,28,25.60
2021,06,29,04,29,25.60
2021,06,29,04,30,25.50
2021,06,29,04,31,25.40
2021,06,29,04,32,25.40
2021,06,29,04,33,25.30
2021,06,29,04,34,25.30
2021,06,29,04,35,25.40
2021,06,29,04,36,25.40
2021,06,29,04,37,25.40
2021,06,29,04,38,25.30
2021,06,29,04,39,25.30
2021,06,29,04,40,25.20
2021,06,29,04,41,25.20
2021,06,29,04,42,25.20
2021,06,29,04,43,25.10
2021,06,29,04,44,25.10
2021,06,29,04,45,25.00
2021,06,29,04,46,24.90
2021,06,29,04,47,24.90
2021,06,29,04,48,24.80
2021,06,29,04,49,24.80
2021,06,29,04,50,24.80
2021,06,29,04,51,24.60
2021,06,29,04,52,24.60
2021,06,29,04,53,24.60
2021,06,29,04,54,24.50
2021,06,29,04,55,24.40
2021,06,29,04,56,24.30
2021,06,29,04,57,24.30
2021,06,29,04,58,24.20
2021,06,29,04,59,24.20
2021,06,29,05,00,24.30
2021,06,29,05,01,24.30
2021,06,29,05,02,24.30
2021,06,29,05,03,24.30
2021,06,29,05,04,24.20
2021,06,29,05,05,24.20
2021,06,29,05,06,24.20
2021,06,29,05,07,24.20
2021,06,29,05,08,24.20
2021,06,29,05,09,24.10
2021,06,29,05,10,24.20
2021,06,29,05,11,24.10
2021,06,29,05,12,24.20
2021,06,29,05,13,24.20
2021,06,29,05,14,24.20
2021,06,29,05,15,24.10
2021,06,29,05,16,24.10
2021,06,29,05,17,24.10
2021,06,29,05,18,24.10
2021,06,29,05,19,24.00
2021,06,29,05,20,24.00
2021,06,29,05,21,23.90
2021,06,29,05,22,23.90
2021,06,29,05,23,23.90
2021,06,29,05,24,23.80
2021,06,29,05,25,23.80
2021,06,29,05,26,23.80
2021,06,29,05,27,23.80
2021,06,29,05,28,23.80
2021,06,29,05,29,23.70
2021,06,29,05,30,23.70
2021,06,29,05,31,23.70
2021,06,29,05,32,23.70
2021,06,29,05,33,23.70
2021,06,29,05,34,23.60
2021,06,29,05,35,23.60
2021,06,29,05,36,23.60
2021,06,29,05,37,23.60
2021,06,29,05,38,23.50
2021,06,29,05,39,23.50
2021,06,29,05,40,23.40
2021,06,29,05,41,23.40
2021,06,29,05,42,23.40
2021,06,29,05,43,23.40
2021,06,29,05,44,23.40
2021,06,29,05,45,23.40
2021,06,29,05,46,23.40
2021,06,29,05,47,23.40
2021,06,29,05,48,23.40
2021,06,29,05,49,23.40
2021,06,29,05,50,23.40
2021,06,29,05,51,23.40
2021,06,29,05,52,23.40
2021,06,29,05,53,23.40
2021,06,29,05,54,23.40
2021,06,29,05,55,23.40
2021,06,29,05,56,23.40
2021,06,29,05,57,23.40
2021,06,29,05,58,23.40
2021,06,29,05,59,23.40
2021,06,29,06,00,23.50
2021,06,29,06,01,23.50
2021,06,29,06,02,23.50
2021,06,29,06,03,23.50
2021,06,29,06,04,23.50
2021,06,29,06,05,23.50
2021,06,29,06,06,23.50
2021,06,29,06,07,23.50
2021,06,29,06,08,23.50
2021,06,29,06,09,23.50
2021,06,29,06,10,23.50
2021,06,29,06,11,23.60
2021,06,29,06,12,23.60
2021,06,29,06,13,23.60
2021,06,29,06,14,23.60
2021,06,29,06,15,23.60
2021,06,29,06,16,23.60
2021,06,29,06,17,23.70
2021,06,29,06,18,23.70
2021,06,29,06,19,23.70
2021,06,29,06,20,23.70
2021,06,29,06,21,23.70
2021,06,29,06,22,23.70
2021,06,29,06,23,23.70
2021,06,29,06,24,23.70
2021,06,29,06,25,23.70
2021,06,29,06,26,23.70
2021,06,29,06,27,23.80
2021,06,29,06,28,23.80
2021,06,29,06,29,23.80
2021,06,29,06,30,23.80
2021,06,29,06,31,23.80
2021,06,29,06,32,23.80
2021,06,29,06,33,23.80
2021,06,29,06,34,23.80
2021,06,29,06,35,23.80
2021,06,29,06,36,23.90
2021,06,29,06,37,23.90
2021,06,29,06,38,23.90
2021,06,29,06,39,23.90
2021,06,29,06,40,23.90
2021,06,29,06,41,24.00
2021,06,29,06,42,24.00
2021,06,29,06,43,24.00
2021,06,29,06,44,24.00
2021,06,29,06,45,24.00
2021,06,29,06,46,24.10
2021,06,29,06,47,24.10
2021,06,29,06,48,24.10
2021,06,29,06,49,24.10
2021,06,29,06,50,24.20
2021,06,29,06,51,24.20
2021,06,29,06,52,24.30
2021,06,29,06,53,24.30
2021,06,29,06,54,24.40
2021,06,29,06,55,24.40
2021,06,29,06,56,24.40
2021,06,29,06,57,24.50
2021,06,29,06,58,24.70
2021,06,29,06,59,24.90
2021,06,29,07,00,25.10
2021,06,29,07,01,25.30
2021,06,29,07,02,25.40
2021,06,29,07,03,25.50
2021,06,29,07,04,25.60
2021,06,29,07,05,25.70
2021,06,29,07,06,25.90
2021,06,29,07,07,26.00
2021,06,29,07,08,26.10
2021,06,29,07,09,26.20
2021,06,29,07,10,26.30
2021,06,29,07,11,26.40
2021,06,29,07,12,26.50
2021,06,29,07,13,26.60
2021,06,29,07,14,26.70
2021,06,29,07,15,26.80
2021,06,29,07,16,26.90
2021,06,29,07,17,27.00
2021,06,29,07,18,27.10
2021,06,29,07,19,27.20
2021,06,29,07,20,27.20
2021,06,29,07,21,27.30
2021,06,29,07,22,27.40
2021,06,29,07,23,27.40
2021,06,29,07,24,27.50
2021,06,29,07,25,27.50
2021,06,29,07,26,27.60
2021,06,29,07,27,27.70
2021,06,29,07,28,27.70
2021,06,29,07,29,27.80
2021,06,29,07,30,27.90
2021,06,29,07,31,27.90
2021,06,29,07,32,28.00
2021,06,29,07,33,28.10
2021,06,29,07,34,28.20
2021,06,29,07,35,28.20
2021,06,29,07,36,28.30
2021,06,29,07,37,28.30
2021,06,29,07,38,28.40
2021,06,29,07,39,28.50
2021,06,29,07,40,28.60
2021,06,29,07,41,28.60
2021,06,29,07,42,28.70
2021,06,29,07,43,28.80
2021,06,29,07,44,28.80
2021,06,29,07,45,28.90
2021,06,29,07,46,28.90
2021,06,29,07,47,29.00
2021,06,29,07,48,29.00
2021,06,29,07,49,29.10
2021,06,29,07,50,29.10
2021,06,29,07,51,29.20
2021,06,29,07,52,29.20
2021,06,29,07,53,29.20
2021,06,29,07,54,29.20
2021,06,29,07,55,29.20
2021,06,29,07,56,29.10
2021,06,29,07,57,29.10
2021,06,29,07,58,29.10
2021,06,29,07,59,29.10
2021,06,29,08,00,29.10
2021,06,29,08,01,29.10
2021,06,29,08,02,29.10
2021,06,29,08,03,29.10
2021,06,29,08,04,29.10
2021,06,29,08,05,29.10
2021,06,29,08,06,29.10
2021,06,29,08,07,29.10
2021,06,29,08,08,29.10
2021,06,29,08,09,29.20
2021,06,29,08,10,29.20
2021,06,29,08,11,29.20
2021,06,29,08,12,29.30
2021,06,29,08,13,29.30
2021,06,29,08,14,29.30
2021,06,29,08,15,29.20
2021,06,29,08,16,29.20
2021,06,29,08,17,29.20
2021,06,29,08,18,29.20
2021,06,29,08,19,29.10
2021,06,29,08,20,29.10
2021,06,29,08,21,29.00
2021,06,29,08,22,28.90
2021,06,29,08,23,28.80
2021,06,29,08,24,28.70
2021,06,29,08,25,28.60
2021,06,29,08,26,28.40
2021,06,29,08,27,28.30
2021,06,29,08,28,28.10
2021,06,29,08,29,28.00
2021,06,29,08,30,27.90
2021,06,29,08,31,27.80
2021,06,29,08,32,27.70
2021,06,29,08,33,27.60
2021,06,29,08,34,27.60
2021,06,29,08,35,27.50
2021,06,29,08,36,27.50
2021,06,29,08,37,27.50
2021,06,29,08,38,27.50
2021,06,29,08,39,27.40
2021,06,29,08,40,27.50
2021,06,29,08,41,27.60
2021,06,29,08,42,27.60
2021,06,29,08,43,27.60
2021,06,29,08,44,27.70
2021,06,29,08,45,27.80
2021,06,29,08,46,27.70
2021,06,29,08,47,27.60
2021,06,29,08,48,27.60
2021,06,29,08,49,27.50
2021,06,29,08,50,27.40
2021,06,29,08,51,27.30
2021,06,29,08,52,27.20
2021,06,29,08,53,27.10
2021,06,29,08,54,27.10
2021,06,29,08,55,27.10
2021,06,29,08,56,27.20
2021,06,29,08,57,27.20
2021,06,29,08,58,27.30
2021,06,29,08,59,27.40
2021,06,29,09,00,27.50
2021,06,29,09,01,27.60
2021,06,29,09,02,27.70
2021,06,29,09,03,27.80
2021,06,29,09,04,27.90
2021,06,29,09,05,27.90
2021,06,29,09,06,27.90
2021,06,29,09,07,27.90
2021,06,29,09,08,27.90
2021,06,29,09,09,27.90
2021,06,29,09,10,27.90
2021,06,29,09,11,27.90
2021,06,29,09,12,27.90
2021,06,29,09,13,27.90
2021,06,29,09,14,27.90
2021,06,29,09,15,27.90
2021,06,29,09,16,27.90
2021,06,29,09,17,27.90
2021,06,29,09,18,28.00
2021,06,29,09,19,28.10
2021,06,29,09,20,28.10
2021,06,29,09,21,28.30
2021,06,29,09,22,28.40
2021,06,29,09,23,28.40
2021,06,29,09,24,28.50
2021,06,29,09,25,28.50
2021,06,29,09,26,28.60
2021,06,29,09,27,28.60
2021,06,29,09,28,28.60
2021,06,29,09,29,28.60
2021,06,29,09,30,28.60
2021,06,29,09,31,28.60
2021,06,29,09,32,28.70
2021,06,29,09,33,28.70
2021,06,29,09,34,28.70
2021,06,29,09,35,28.80
2021,06,29,09,36,28.80
2021,06,29,09,37,28.80
2021,06,29,09,38,28.90
2021,06,29,09,39,28.90
2021,06,29,09,40,28.90
2021,06,29,09,41,28.90
2021,06,29,09,42,28.90
2021,06,29,09,43,29.00
2021,06,29,09,44,29.00
2021,06,29,09,45,29.00
2021,06,29,09,46,29.00
2021,06,29,09,47,29.00
2021,06,29,09,48,29.00
2021,06,29,09,49,28.90
2021,06,29,09,50,28.90
2021,06,29,09,51,28.90
2021,06,29,09,52,28.90
2021,06,29,09,53,28.90
2021,06,29,09,54,28.90
2021,06,29,09,55,29.00
2021,06,29,09,56,29.00
2021,06,29,09,57,29.00
2021,06,29,09,58,28.90
2021,06,29,09,59,28.80
2021,06,29,10,00,28.80
2021,06,29,10,01,28.70
2021,06,29,10,02,28.70
2021,06,29,10,03,28.70
2021,06,29,10,04,28.70
2021,06,29,10,05,28.70
2021,06,29,10,06,28.70
2021,06,29,10,07,28.70
2021,06,29,10,08,28.80
2021,06,29,10,09,28.80
2021,06,29,10,10,28.80
2021,06,29,10,11,28.80
2021,06,29,10,12,28.80
2021,06,29,10,13,28.80
2021,06,29,10,14,28.80
2021,06,29,10,15,28.80
2021,06,29,10,16,28.80
2021,06,29,10,17,28.80
2021,06,29,10,18,28.80
2021,06,29,10,19,28.70
2021,06,29,10,20,28.70
2021,06,29,10,21,28.70
2021,06,29,10,22,28.60
2021,06,29,10,23,28.60
2021,06,29,10,24,28.60
2021,06,29,10,25,28.60
2021,06,29,10,26,28.60
2021,06,29,10,27,28.60
2021,06,29,10,28,28.50
2021,06,29,10,29,28.40
2021,06,29,10,30,28.30
2021,06,29,10,31,28.20
2021,06,29,10,32,28.20
2021,06,29,10,33,28.10
2021,06,29,10,34,28.00
2021,06,29,10,35,27.90
2021,06,29,10,36,27.90
2021,06,29,10,37,28.00
2021,06,29,10,38,28.00
2021,06,29,10,39,27.90
2021,06,29,10,40,27.90
2021,06,29,10,41,27.90
2021,06,29,10,42,27.90
2021,06,29,10,43,27.90
2021,06,29,10,44,27.90
2021,06,29,10,45,27.90
2021,06,29,10,46,27.90
2021,06,29,10,47,27.90
2021,06,29,10,48,27.90
2021,06,29,10,49,27.90
2021,06,29,10,50,27.90
2021,06,29,10,51,28.00
2021,06,29,10,52,28.00
2021,06,29,10,53,28.10
2021,06,29,10,54,28.20
2021,06,29,10,55,28.20
2021,06,29,10,56,28.30
2021,06,29,10,57,28.20
2021,06,29,10,58,28.20
2021,06,29,10,59,28.20
2021,06,29,11,00,28.20
2021,06,29,11,01,28.10
2021,06,29,11,02,27.90
2021,06,29,11,03,27.80
2021,06,29,11,04,27.70
2021,06,29,11,05,27.70
2021,06,29,11,06,27.70
2021,06,29,11,07,27.70
2021,06,29,11,08,27.50
2021,06,29,11,09,27.50
2021,06,29,11,10,27.30
2021,06,29,11,11,27.20
2021,06,29,11,12,27.00
2021,06,29,11,13,26.90
2021,06,29,11,14,26.80
2021,06,29,11,15,26.80
2021,06,29,11,16,26.90
2021,06,29,11,17,26.90
2021,06,29,11,18,26.90
2021,06,29,11,19,26.80
2021,06,29,11,20,26.80
2021,06,29,11,21,26.80
2021,06,29,11,22,26.80
2021,06,29,11,23,26.80
2021,06,29,11,24,26.80
2021,06,29,11,25,26.80
2021,06,29,11,26,26.80
2021,06,29,11,27,26.80
2021,06,29,11,28,26.90
2021,06,29,11,29,26.90
2021,06,29,11,30,26.90
2021,06,29,11,31,26.90
2021,06,29,11,32,26.90
2021,06,29,11,33,27.00
2021,06,29,11,34,27.10
2021,06,29,11,35,27.20
2021,06,29,11,36,27.20
2021,06,29,11,37,27.20
2021,06,29,11,38,27.10
2021,06,29,11,39,27.10
2021,06,29,11,40,27.10
2021,06,29,11,41,27.10
2021,06,29,11,42,27.10
2021,06,29,11,43,27.10
2021,06,29,11,44,27.10
2021,06,29,11,45,27.20
2021,06,29,11,46,27.20
2021,06,29,11,47,27.20
2021,06,29,11,48,27.20
2021,06,29,11,49,27.20
2021,06,29,11,50,27.10
2021,06,29,11,51,27.20
2021,06,29,11,52,27.20
2021,06,29,11,53,27.20
2021,06,29,11,54,27.30
2021,06,29,11,55,27.20
2021,06,29,11,56,27.20
2021,06,29,11,57,27.40
2021,06,29,11,58,27.50
2021,06,29,11,59,27.60
2021,06,29,12,00,27.60
2021,06,29,12,01,27.70
2021,06,29,12,02,27.70
2021,06,29,12,03,27.80
2021,06,29,12,04,27.70
2021,06,29,12,05,27.70
2021,06,29,12,06,27.60
2021,06,29,12,07,27.50
2021,06,29,12,08,27.40
2021,06,29,12,09,27.40
2021,06,29,12,10,27.50
2021,06,29,12,11,27.60
2021,06,29,12,12,27.60
2021,06,29,12,13,27.60
2021,06,29,12,14,27.60
2021,06,29,12,15,27.60
2021,06,29,12,16,27.60
2021,06,29,12,17,27.50
2021,06,29,12,18,27.60
2021,06,29,12,19,27.60
2021,06,29,12,20,27.60
2021,06,29,12,21,27.60
2021,06,29,12,22,27.60
2021,06,29,12,23,27.60
2021,06,29,12,24,27.70
2021,06,29,12,25,27.80
2021,06,29,12,26,27.90
2021,06,29,12,27,27.90
2021,06,29,12,28,27.90
2021,06,29,12,29,27.90
2021,06,29,12,30,27.90
2021,06,29,12,31,27.90
2021,06,29,12,32,27.90
2021,06,29,12,33,27.90
2021,06,29,12,34,28.00
2021,06,29,12,35,28.10
2021,06,29,12,36,28.20
2021,06,29,12,37,28.30
2021,06,29,12,38,28.40
2021,06,29,12,39,28.60
2021,06,29,12,40,28.70
2021,06,29,12,41,28.70
2021,06,29,12,42,28.80
2021,06,29,12,43,28.80
2021,06,29,12,44,28.80
2021,06,29,12,45,28.80
2021,06,29,12,46,28.90
2021,06,29,12,47,28.80
2021,06,29,12,48,28.90
2021,06,29,12,49,28.80
2021,06,29,12,50,28.80
2021,06,29,12,51,28.80
2021,06,29,12,52,28.90
2021,06,29,12,53,28.90
2021,06,29,12,54,28.90
2021,06,29,12,55,28.90
2021,06,29,12,56,28.90
2021,06,29,12,57,28.80
2021,06,29,12,58,28.80
2021,06,29,12,59,28.80
2021,06,29,13,00,28.70
2021,06,29,13,01,28.70
2021,06,29,13,02,28.70
2021,06,29,13,03,28.70
2021,06,29,13,04,28.90
2021,06,29,13,05,28.90
2021,06,29,13,06,29.00
2021,06,29,13,07,29.10
2021,06,29,13,08,29.20
2021,06,29,13,09,29.30
2021,06,29,13,10,29.30
2021,06,29,13,11,29.40
2021,06,29,13,12,29.40
2021,06,29,13,13,29.30
2021,06,29,13,14,29.20
2021,06,29,13,15,29.10
2021,06,29,13,16,29.10
2021,06,29,13,17,29.00
2021,06,29,13,18,29.00
2021,06,29,13,19,29.00
2021,06,29,13,20,29.10
2021,06,29,13,21,29.20
2021,06,29,13,22,29.20
2021,06,29,13,23,29.20
2021,06,29,13,24,29.30
2021,06,29,13,25,29.40
2021,06,29,13,26,29.50
2021,06,29,13,27,29.50
2021,06,29,13,28,29.50
2021,06,29,13,29,29.50
2021,06,29,13,30,29.40
2021,06,29,13,31,29.40
2021,06,29,13,32,29.40
2021,06,29,13,33,29.40
2021,06,29,13,34,29.30
2021,06,29,13,35,29.30
2021,06,29,13,36,29.30
2021,06,29,13,37,29.40
2021,06,29,13,38,29.40
2021,06,29,13,39,29.40
2021,06,29,13,40,29.40
2021,06,29,13,41,29.30
2021,06,29,13,42,29.30
2021,06,29,13,43,29.30
2021,06,29,13,44,29.40
2021,06,29,13,45,29.40
2021,06,29,13,46,29.50
2021,06,29,13,47,29.60
2021,06,29,13,48,29.70
2021,06,29,13,49,29.80
2021,06,29,13,50,29.80
2021,06,29,13,51,29.70
2021,06,29,13,52,29.70
2021,06,29,13,53,29.60
2021,06,29,13,54,29.60
2021,06,29,13,55,29.50
2021,06,29,13,56,29.50
2021,06,29,13,57,29.50
2021,06,29,13,58,29.50
2021,06,29,13,59,29.50
2021,06,29,14,00,29.40
2021,06,29,14,01,29.30
2021,06,29,14,02,29.30
2021,06,29,14,03,29.30
2021,06,29,14,04,29.40
2021,06,29,14,05,29.50
2021,06,29,14,06,29.60
2021,06,29,14,07,29.60
2021,06,29,14,08,29.50
2021,06,29,14,09,29.50
2021,06,29,14,10,29.50
2021,06,29,14,11,29.50
2021,06,29,14,12,29.40
2021,06,29,14,13,29.50
2021,06,29,14,14,29.60
2021,06,29,14,15,29.60
2021,06,29,14,16,29.60
2021,06,29,14,17,29.60
2021,06,29,14,18,29.70
2021,06,29,14,19,29.70
2021,06,29,14,20,29.70
2021,06,29,14,21,29.70
2021,06,29,14,22,29.70
2021,06,29,14,23,29.80
2021,06,29,14,24,29.80
2021,06,29,14,25,29.80
2021,06,29,14,26,29.70
2021,06,29,14,27,29.60
2021,06,29,14,28,29.50
2021,06,29,14,29,29.40
2021,06,29,14,30,29.40
2021,06,29,14,31,29.50
2021,06,29,14,32,29.60
2021,06,29,14,33,29.70
2021,06,29,14,34,29.70
2021,06,29,14,35,29.70
2021,06,29,14,36,29.80
2021,06,29,14,37,29.80
2021,06,29,14,38,29.80
2021,06,29,14,39,29.80
2021,06,29,14,40,29.70
2021,06,29,14,41,29.70
2021,06,29,14,42,29.70
2021,06,29,14,43,29.70
2021,06,29,14,44,29.80
2021,06,29,14,45,29.80
2021,06,29,14,46,29.80
2021,06,29,14,47,29.90
2021,06,29,14,48,29.90
2021,06,29,14,49,29.90
2021,06,29,14,50,29.90
2021,06,29,14,51,29.90
2021,06,29,14,52,29.90
2021,06,29,14,53,30.00
2021,06,29,14,54,30.20
2021,06,29,14,55,30.20
2021,06,29,14,56,30.30
2021,06,29,14,57,30.30
2021,06,29,14,58,30.30
2021,06,29,14,59,30.30
2021,06,29,15,00,30.30
2021,06,29,15,01,30.40
2021,06,29,15,02,30.50
2021,06,29,15,03,30.50
2021,06,29,15,04,30.50
2021,06,29,15,05,30.60
2021,06,29,15,06,30.60
2021,06,29,15,07,30.60
2021,06,29,15,08,30.60
2021,06,29,15,09,30.70
2021,06,29,15,10,30.70
2021,06,29,15,11,30.70
2021,06,29,15,12,30.70
2021,06,29,15,13,30.70
2021,06,29,15,14,30.70
2021,06,29,15,15,30.60
2021,06,29,15,16,30.70
2021,06,29,15,17,30.70
2021,06,29,15,18,30.80
2021,06,29,15,19,30.80
2021,06,29,15,20,30.80
2021,06,29,15,21,30.70
2021,06,29,15,22,30.70
2021,06,29,15,23,30.70
2021,06,29,15,24,30.60
2021,06,29,15,25,30.60
2021,06,29,15,26,30.50
2021,06,29,15,27,30.60
2021,06,29,15,28,30.60
2021,06,29,15,29,30.50
2021,06,29,15,30,30.50
2021,06,29,15,31,30.40
2021,06,29,15,32,30.40
2021,06,29,15,33,30.40
2021,06,29,15,34,30.30
2021,06,29,15,35,30.30
2021,06,29,15,36,30.30
2021,06,29,15,37,30.30
2021,06,29,15,38,30.30
2021,06,29,15,39,30.30
2021,06,29,15,40,30.20
2021,06,29,15,41,30.10
2021,06,29,15,42,30.10
2021,06,29,15,43,30.10
2021,06,29,15,44,30.20
2021,06,29,15,45,30.30
2021,06,29,15,46,30.30
2021,06,29,15,47,30.30
2021,06,29,15,48,30.40
2021,06,29,15,49,30.40
2021,06,29,15,50,30.40
2021,06,29,15,51,30.40
2021,06,29,15,52,30.40
2021,06,29,15,53,30.40
2021,06,29,15,54,30.40
2021,06,29,15,55,30.40
2021,06,29,15,56,30.40
2021,06,29,15,57,30.40
2021,06,29,15,58,30.50
2021,06,29,15,59,30.50
2021,06,29,16,00,30.60
2021,06,29,16,01,30.60
2021,06,29,16,02,30.70
2021,06,29,16,03,30.80
2021,06,29,16,04,30.90
2021,06,29,16,05,31.00
2021,06,29,16,06,31.10
2021,06,29,16,07,31.20
2021,06,29,16,08,31.30
2021,06,29,16,09,31.30
2021,06,29,16,10,31.20
2021,06,29,16,11,31.10
2021,06,29,16,12,30.90
2021,06,29,16,13,30.80
2021,06,29,16,14,30.70
2021,06,29,16,15,30.70
2021,06,29,16,16,30.60
2021,06,29,16,17,30.50
2021,06,29,16,18,30.50
2021,06,29,16,19,30.50
2021,06,29,16,20,30.60
2021,06,29,16,21,30.50
2021,06,29,16,22,30.40
2021,06,29,16,23,30.30
2021,06,29,16,24,30.20
2021,06,29,16,25,30.20
2021,06,29,16,26,30.10
2021,06,29,16,27,30.10
2021,06,29,16,28,30.00
2021,06,29,16,29,30.00
2021,06,29,16,30,29.90
2021,06,29,16,31,29.90
2021,06,29,16,32,29.80
2021,06,29,16,33,29.80
2021,06,29,16,34,29.80
2021,06,29,16,35,29.80
2021,06,29,16,36,29.80
2021,06,29,16,37,30.00
2021,06,29,16,38,30.10
2021,06,29,16,39,30.10
2021,06,29,16,40,30.10
2021,06,29,16,41,30.20
2021,06,29,16,42,30.30
2021,06,29,16,43,30.40
2021,06,29,16,44,30.50
2021,06,29,16,45,30.60
2021,06,29,16,46,30.60
2021,06,29,16,47,30.70
2021,06,29,16,48,30.70
2021,06,29,16,49,30.70
2021,06,29,16,50,30.70
2021,06,29,16,51,30.70
2021,06,29,16,52,30.90
2021,06,29,16,53,30.80
2021,06,29,16,54,31.00
2021,06,29,16,55,31.10
2021,06,29,16,56,31.10
2021,06,29,16,57,31.00
2021,06,29,16,58,31.00
2021,06,29,16,59,30.90
2021,06,29,17,00,30.90
2021,06,29,17,01,30.90
2021,06,29,17,02,31.00
2021,06,29,17,03,31.00
2021,06,29,17,04,31.00
2021,06,29,17,05,31.20
2021,06,29,17,06,31.20
2021,06,29,17,07,31.20
2021,06,29,17,08,31.30
2021,06,29,17,09,31.30
2021,06,29,17,10,31.30
2021,06,29,17,11,31.30
2021,06,29,17,12,31.30
2021,06,29,17,13,31.20
2021,06,29,17,14,31.20
2021,06,29,17,15,31.20
2021,06,29,17,16,31.10
2021,06,29,17,17,31.00
2021,06,29,17,18,31.00
2021,06,29,17,19,30.90